Find Starlink 31651

NORAD ID: 59860 Int'l Des: 2024-098 Owner: SPXS Country: US Constellation: starlink operational
LEOCIRCULAR

Live-Position

3D-Globus wird geladen...

Über Starlink 31651

Beschreibung wird geladen...

Nächste Überflüge

Passes for default location (London). Set your location on the main map for personalized predictions.

Höhenverlauf

Loading altitude history...

Zweizeiliger Elementsatz

1 59860U 24098C 26125.55858174 .00000910 00000-0 42582-4 0 9995
2 59860 42.9998 316.8226 0000531 287.4416 72.6377 15.27582602110541
Epoch: 5. Mai 2026 • Age: 18 hours

Aktueller Status

Höhe 482.8 km
Geschwindigkeit 7.63 km/s
Subsatellitenpunkt 1.41°N, 155.26°E
Startdatum 24. Mai 2024
Alter 1.9 years
Typ internet

Technische Details

Klassifizierung Payload
Masse 730.00 kg
Trockenmasse 700.00 kg
Gesamtmasse 730.00 kg
Länge 0.30 m
Durchmesser 4.10 m
Spannweite 29.00 m
Form Box + pan
Hersteller SPXS
Bus-Typ Starlink V2M
Phasenstatus In Orbit
Besitzer/Staat SPXS/US

Most Searched